STARLINK-4501, 53553

Orbit data source: Space-Track

STARLINK-4501, 53553 is a payload satellite owned by SpaceX/Seattle (US) in LEO that was launched on Fri, 19 Aug 2022 UTC via an FALCON 9 launch vehicle from the Air Force Eastern Test Range (AFETR). Payload-class satellites include a variety of spacecraft equipped with specific instruments for various scientific and technological missions. These include communications satellites like Starlink; space stations such as the ISS; scientific satellites like the Hubble; Earth observation satellites from companies like Planet Labs, Umbra, and HawkEye 360; GPS; miniature CubeSats for education and research; and military/defense satellites.

Loading next visibility...
Identifier
53553, 2022-101AC
Orbit
LEO
Country
Flag of USUS
Related business
Manufacturer
SpaceX/Seattle
Mission
Operational Commercial Communications
Bus & Motor
STARLINK, Unknown motor
Mass
300 kg wet, ~290 kg dry
Launch date (UTC)
2022-08-19 (4 years ago)
Launch vehicle
FALCON 9
Launch site
Air Force Eastern Test Range (AFETR)
Object type
Payload
Rocket body
Debris
Shape & HBR
Box + 1 Pan, 10.1 m
Radar Cross Section
13.562 m², Large (>1 m²)

Expand to show TLE details & history
Last TLE update: 3 days ago

TLE from 3 days ago
0 STARLINK-4501
1 53553U 22101AC  26170.86744349  .00000199  00000-0  30588-4 0  9995
2 53553  53.1597 325.1857 0001199  84.5963 275.5165 15.08835733212390
Epoch: 2026-06-19T20:49Z
TLE epoch observation values (Epoch: 2026-06-19T20:49:07.117Z)
Latitude
-0.00004°
Longitude
104.81576°
Altitude
540.568 km
Speed
7.593 km/s
True Right ascension
21h 40m 44s
True Declination
0° 00' 00"
Sunlit
Object was in full shadow at epoch
Visualization orbit readout
Latitude
Unknown
Longitude
Unknown
Altitude
Unknown
Speed
Unknown
Apparent Right ascension
Unknown
Apparent Declination
Unknown
Sunlit
N/A
Visualization observer readout
Local Sidereal Time
21:27:11
Azimuth
Unknown
Elevation
Unknown
Doppler factor
Unknown
Orbital elements
Apogee altitude
540.84 km
Perigee altitude
539.181 km
Semi-major axis
6,918.148 km
Eccentricity
0.00012
Inclination
53.1597°
RAAN
325.1857°
Arg. of periapsis
84.5963°
True anomaly
275.50282°
Mean anomaly
275.5165°
Eccentric anomaly
275.50966°
Mean motion
3.77188 °/min
Orbital period
95.44 mins
BSTAR
0.000030588
Loading maneuver chart data...
Computing Atmospheric mass density...
Loading historical data...
Loading historical data...
Loading historical data...
Loading historical data...
Loading historical data...
Loading historical data...
Loading historical data...

Documentation

Showing up to 5 results
|